Regional Weather Roundup
Issued by NWS

Home | Current Version | Previous Version | Graphics & Text | Print | Product List | Glossary On
Versions: 1 2 3 4 5 6 7 8 9 10 11 12 13 14 15 16 17 18 19 20 21 22 23 24 25 26 27 28 29 30 31 32 33 34 35 36 37 38 39 40 41 42 43 44 45 46 47 48 49 50
000
ASUS43 KDTX 271010
RWRMI
MICHIGAN HOURLY REGIONAL WEATHER ROUNDUP
NATIONAL WEATHER SERVICE DETROIT/PONTIAC MI
500 AM EST SAT DEC 27 2014

NOTE: "FAIR" INDICATES FEW OR NO CLOUDS BELOW 12,000 FEET WITH NO
SIGNIFICANT WEATHER AND/OR OBSTRUCTION TO VISIBILITY.

MIZ047>049-052>055-059>063-066>070-074>076-081>083-271100-
SOUTHEAST LOWER MICHIGAN

CITY           SKY/WX    TMP DP  RH WIND       PRES   REMARKS
ADRIAN         CLOUDY    43  39  86 SW8       30.09F
ALMA           CLOUDY    42  39  91 S7        30.01F
ANN ARBOR      CLOUDY    39  38  96 SW6       30.08F WCI  35
BAD AXE        CLOUDY    37  37 100 CALM      30.04F
CARO           CLOUDY    41  39  91 S5        30.03F
DETROIT CITY   CLOUDY    45  37  73 S7        30.11S
DETROIT        CLOUDY    41  37  86 SE6       30.10F
FLINT          PTCLDY    45  39  79 S7        30.05F
GROSSE ILE     CLOUDY    39  37  93 CALM      30.09F
HILLSDALE      CLOUDY    43  41  93 S6        30.07S
HOWELL         PTCLDY    41  39  91 S5        30.05F

CITY           SKY/WX    TMP DP  RH WIND       PRES   REMARKS
JACKSON        MOCLDY    43  39  86 S6        30.06F
LAMBERTVILLE   CLOUDY    45  37  76 S5        30.10F
LANSING        PTCLDY    42  39  89 S9        30.04F
LAPEER         CLOUDY    43  39  86 SW6       30.05F
MASON          PTCLDY    40  38  89 S5        30.04F
MONROE         CLOUDY    45  39  81 SW6       30.09S
MT. CLEMENS    CLOUDY    40  40 100 S6        30.08F
PONTIAC        CLOUDY    41  39  93 S5        30.06F
PORT HOPE        N/A     36  34  92 SE3       30.03F
PORT HURON     PTCLDY    37  37 100 S6        30.09F WCI  33
TRI CITIES     PTCLDY    41  37  86 S6        30.02F
TROY           CLOUDY    44  39  82 S6        30.10S
SAGINAW HB     PTCLDY    41  39  93 S7        30.02F
$$
MIZ043>046-050>051-056>058-064>065-071>073-077>080-271100-
SOUTHWEST LOWER MICHIGAN

CITY           SKY/WX    TMP DP  RH WIND       PRES   REMARKS
BATTLE CREEK   CLOUDY    45  40  82 S12       30.05F
BENTON HARBOR  LGT RAIN  45  43  93 S8        30.01F
BIG RAPIDS     CLOUDY    36  36 100 CALM      29.98F FOG
COLDWATER      CLOUDY    45  40  81 SW10G16   30.07R
FREMONT        DRIZZLE   41  40  95 CALM      29.98F
HOLLAND        CLOUDY    47  42  83 S10       30.01F
GRAND RAPIDS   CLOUDY    43  40  89 S9        30.01F
IONIA          FAIR      42  40  93 S9        30.01F
KALAMAZOO      CLOUDY    44  40  85 S8        30.04F
LUDINGTON      CLOUDY    37  36  93 SE3       29.96F FOG
MARSHALL       CLOUDY    43  40  88 S7        30.05S
MOUNT PLEASANT CLOUDY    35  34  97 CALM      30.00F FOG
MUSKEGON       CLOUDY    47  41  80 S15       29.98F
SOUTH HAVEN    LGT RAIN  46  42  86 S7        30.01F
$$
MIZ016>042-271100-
NORTHERN LOWER MICHIGAN

CITY           SKY/WX    TMP DP  RH WIND       PRES   REMARKS
ALPENA         CLOUDY    37  34  89 SE5       30.02F WCI  33
BEAVER ISLAND  RAIN      34  34 100 CALM      29.98F
BELLAIRE       CLOUDY    37  35  90 CALM      29.97F
CADILLAC       CLOUDY    32  31  99 CALM      29.96S FOG
CHARLEVOIX     CLOUDY    37  35  95 E3        29.99F
FRANKFORT      CLOUDY    37  37  97 SE3       29.96S
GAYLORD        CLOUDY    34  34 100 S5        29.97F FOG     WCI  30
GRAYLING       CLOUDY    33  33 100 CALM      29.98F FOG
HARBOR SPRINGS CLOUDY    35  34  96 NE5       29.98F WCI  31
HOUGHTON LAKE  MOCLDY    32  31  96 CALM      29.98F FOG
MANISTEE       CLOUDY    34  32  93 E5        29.97F WCI  30
OSCODA         CLOUDY    35  34  96 CALM      30.02F
PELLSTON       CLOUDY    35  34  96 CALM      29.98F FOG
ROGERS CITY    CLOUDY    37  36  95 S8        30.02F WCI  31
TRAVERSE CITY  MOCLDY    38  35  89 CALM      29.96F
$$
MIZ007>008-015-271100-
EASTERN UPPER MICHIGAN

CITY           SKY/WX    TMP DP  RH WIND       PRES   REMARKS
KINROSS        CLOUDY    34  34 100 SE3       29.99S
MACKINAC ISLAN MIX PCPN  36  36  99 S5        29.98F WCI  32
NEWBERRY       LGT SNOW  32  32 100 CALM      29.98S
S. S. MARIE    LGT SNOW  33  32  96 CALM      29.98F VSB 3/4
MUNISING         N/A     35  32  88 NE7       29.98F WCI  29
$$
MIZ004>006-011>014-085-271100-
CENTRAL UPPER MICHIGAN

CITY           SKY/WX    TMP DP  RH WIND       PRES   REMARKS
MANISTIQUE     LGT SNOW  32  32 100 N3        29.98F
ESCANABA       CLOUDY    32  30  93 NE5       29.97F WCI  27
MENOMINEE      CLOUDY    34  32  93 NE7       29.95F WCI  28
SAWYER-GWINN   LGT SNOW  31  30  95 E5        29.97S WCI  26
$$
MIZ001>003-009>011-084-271100-
WESTERN UPPER MICHIGAN

CITY           SKY/WX    TMP DP  RH WIND       PRES   REMARKS
IRON MOUNTAIN  LGT SNOW  32  30  92 CALM      29.94F FOG
HOUGHTON       LGT SNOW  29  26  89 NE6       29.98F FOG     WCI  23
COPPER HARBOR    N/A     32  27  81 E6        30.01F WCI  26
IRONWOOD       CLOUDY    28  28 100 N6        29.96F WCI  22
$$

ABBREVIATIONS USED IN REMARKS
   TC - TEMPERATURE IN CELSIUS
  WCI - WIND CHILL INDEX
   HX - HEAT INDEX
  VSB - VISIBILITY



USA.gov is the U.S. government's official web portal to all federal, state and local government web resources and services.